GW6756 Weather Reports


time (UTC)temp
F
wind
direction
speed
knots
gust
knots
rain 1hr
in
rain 24hr
in
rain mn
in
humidity
%
barometer
mb
20260510180113 74 345 1.7 1.7 0.00 0.01 0.01 54 1013.5
20260510175608 74 18 3.5 3.5 0.00 0.01 0.01 52 1013.4
20260510175104 75 341 3.5 6.1 0.00 0.01 0.01 50 1013.5
20260510174602 76 344 5.2 6.1 0.00 0.01 0.01 51 1013.5
20260510174059 78 116 2.6 3.5 0.00 0.01 0.01 46 1013.5
20260510173554 78 93 0.9 0.9 0.00 0.01 0.01 44 1013.5
20260510173052 77 97 1.7 2.6 0.00 0.01 0.01 49 1013.4
20260510172547 76 44 1.7 1.7 0.00 0.01 0.01 51 1013.6
20260510172044 77 324 3.5 3.5 0.00 0.01 0.01 48 1013.5
20260510171541 77 340 2.6 3.5 0.00 0.01 0.01 52 1013.5
20260510171038 76 111 0.9 0.9 0.00 0.01 0.01 46 1013.5
20260510170534 77 180 3.5 3.5 0.00 0.01 0.01 50 1013.3
20260510170031 76 159 0.9 0.9 0.00 0.01 0.01 49 1013.2
20260510165526 75 125 0.9 1.7 0.00 0.01 0.01 49 1013.4
20260510165023 75 165 1.7 2.6 0.00 0.01 0.01 50 1013.3
20260510164520 75 328 3.5 3.5 0.00 0.01 0.01 48 1013.4
20260510164017 76 57 0.9 0.9 0.00 0.01 0.01 50 1013.3
20260510163512 75 125 0.0 0.9 0.00 0.01 0.01 49 1013.4
20260510163008 75 130 0.9 0.9 0.00 0.01 0.01 50 1013.6
20260510162504 74 181 0.9 1.7 0.00 0.01 0.01 54 1013.4
20260510162000 74 118 1.7 2.6 0.00 0.01 0.01 52 1013.6
20260510161456 74 100 0.9 1.7 0.00 0.01 0.01 51 1013.5
20260510160953 74 292 3.5 5.2 0.00 0.01 0.01 54 1013.4
20260510160450 73 282 1.7 2.6 0.00 0.01 0.01 56 1013.3
20260510155948 73 173 0.9 1.7 0.00 0.01 0.01 56 1013.4
20260510155446 74 105 1.7 1.7 0.00 0.01 0.01 54 1013.4
20260510154943 73 172 1.7 1.7 0.00 0.01 0.01 61 1013.5
20260510154439 74 193 0.9 1.7 0.00 0.01 0.01 61 1013.8
20260510153937 73 72 0.0 0.9 0.00 0.01 0.01 59 1013.7
20260510153434 71 120 3.5 3.5 0.00 0.01 0.01 59 1013.8
20260510152931 71 240 2.6 2.6 0.00 0.01 0.01 59 1013.6
20260510152429 71 340 2.6 2.6 0.00 0.01 0.01 61 1013.5
20260510151925 70 115 0.9 1.7 0.00 0.01 0.01 63 1013.5
20260510151422 69 139 0.0 0.9 0.00 0.01 0.01 61 1013.6
20260510150918 70 356 3.5 3.5 0.00 0.01 0.01 61 1013.8
20260510150414 68 123 1.7 1.7 0.00 0.01 0.01 66 1013.9
20260510145910 69 61 2.6 2.6 0.00 0.01 0.01 65 1014.0
20260510145407 68 143 1.7 1.7 0.00 0.01 0.01 64 1013.9
20260510144904 69 90 0.9 0.9 0.00 0.01 0.01 65 1013.9
20260510144401 69 159 2.6 3.5 0.00 0.01 0.01 67 1013.8
20260510143900 68 108 0.0 0.9 0.00 0.01 0.01 66 1013.8
20260510143357 67 126 0.9 0.9 0.00 0.01 0.01 68 1013.9
20260510142854 67 127 0.0 0.0 0.00 0.01 0.01 72 1013.8
20260510142350 66 151 0.9 0.9 0.00 0.01 0.01 68 1013.7
20260510141847 66 91 0.0 0.9 0.00 0.01 0.01 73 1013.7
20260510141345 64 130 0.9 0.9 0.00 0.01 0.01 75 1013.8
20260510140842 65 61 0.9 0.9 0.00 0.01 0.01 74 1013.6
20260510140338 63 147 0.9 1.7 0.00 0.01 0.01 75 1013.7
20260510135836 63 102 0.9 0.9 0.00 0.01 0.01 77 1013.8
20260510135333 61 17 1.7 1.7 0.00 0.01 0.01 80 1013.5
20260510134831 62 120 0.9 0.9 0.00 0.01 0.01 81 1013.7
20260510134327 61 95 0.9 0.9 0.00 0.01 0.01 81 1013.7
20260510133823 60 181 0.9 1.7 0.00 0.01 0.01 81 1013.7
20260510133319 59 134 0.0 0.9 0.00 0.01 0.01 87 1013.5
20260510132815 58 84 0.9 0.9 0.00 0.01 0.01 90 1013.7
20260510132314 58 149 0.9 0.9 0.00 0.01 0.01 86 1013.7
20260510131810 56 130 0.0 0.0 0.00 0.01 0.01 93 1013.5
20260510131308 55 132 0.0 0.0 0.00 0.01 0.01 96 1013.7
20260510130804 54 153 0.9 1.7 0.00 0.01 0.01 96 1013.6
20260510130301 54 121 0.0 0.0 0.00 0.01 0.01 96 1013.9
20260510125757 54 131 0.0 0.9 0.00 0.01 0.01 97 1013.8
20260510125253 54 61 0.9 0.9 0.00 0.01 0.01 97 1013.8
20260510124750 54 126 0.0 0.0 0.00 0.01 0.01 97 1013.6
20260510124248 53 123 0.0 0.0 0.00 0.01 0.01 97 1013.6
20260510123743 53 107 0.0 0.0 0.00 0.01 0.01 97 1013.4
20260510123239 53 112 0.9 0.9 0.00 0.01 0.01 97 1013.6
20260510122736 53 149 0.0 0.0 0.00 0.01 0.01 97 1013.4
20260510122232 53 143 0.0 0.0 0.00 0.01 0.01 97 1013.4
20260510121728 53 130 0.0 0.0 0.00 0.01 0.01 97 1013.3
20260510121226 53 127 0.0 0.0 0.00 0.01 0.01 97 1013.3
20260510120723 53 122 0.0 0.0 0.00 0.01 0.01 97 1013.1
20260510120220 53 140 0.0 0.0 0.00 0.01 0.01 97 1013.1
20260510115715 52 138 0.0 0.0 0.00 0.01 0.01 97 1013.1
20260510115214 52 94 0.0 0.9 0.00 0.01 0.01 97 1013.0
20260510114708 52 151 0.0 0.0 0.00 0.01 0.01 97 1013.1
20260510114206 52 116 0.0 0.0 0.00 0.01 0.01 97 1013.0
20260510113700 52 119 0.0 0.0 0.00 0.01 0.01 97 1013.0
20260510113158 51 146 0.9 0.9 0.00 0.01 0.01 97 1012.8
20260510112654 51 159 0.0 0.0 0.00 0.01 0.01 97 1012.9
20260510112152 51 126 0.0 0.0 0.00 0.01 0.01 97 1012.7
20260510111647 51 132 0.0 0.0 0.00 0.01 0.01 97 1013.0
20260510111144 51 136 0.0 0.0 0.00 0.01 0.01 97 1013.1
20260510110639 51 134 0.0 0.0 0.00 0.01 0.01 97 1012.9
20260510110137 51 130 0.0 0.0 0.00 0.01 0.01 97 1012.8
20260510105633 51 99 0.9 0.9 0.00 0.01 0.01 97 1012.5
20260510105132 51 125 0.0 0.9 0.00 0.01 0.01 97 1012.5
20260510104629 50 110 0.0 0.0 0.00 0.01 0.01 97 1012.4
20260510104126 50 123 0.9 0.9 0.00 0.01 0.01 97 1012.3
20260510103623 50 114 0.0 0.9 0.00 0.01 0.01 97 1012.4
20260510103119 50 129 0.0 0.0 0.00 0.01 0.01 97 1012.3
20260510102614 50 136 0.9 0.9 0.00 0.01 0.01 97 1012.3
20260510102110 50 137 0.0 0.0 0.00 0.01 0.01 97 1012.4
20260510101608 50 136 0.0 0.0 0.00 0.01 0.01 97 1012.4
20260510101106 50 136 0.0 0.0 0.00 0.01 0.01 97 1012.4
20260510100602 50 138 0.0 0.0 0.00 0.01 0.01 97 1012.4
20260510100100 50 117 0.9 0.9 0.00 0.01 0.01 97 1012.2
20260510095555 50 124 0.0 0.0 0.00 0.01 0.01 97 1012.0
20260510095050 50 115 0.0 0.0 0.00 0.01 0.01 97 1012.1
20260510094550 50 126 0.0 0.0 0.00 0.01 0.01 97 1012.1
20260510094045 50 128 0.9 0.9 0.00 0.01 0.01 97 1012.2
20260510093541 50 130 0.0 0.0 0.00 0.01 0.01 97 1012.1
20260510093039 50 131 0.0 0.0 0.00 0.01 0.01 97 1012.1
20260510092536 50 125 0.0 0.0 0.00 0.01 0.01 97 1012.0
20260510092035 50 133 0.0 0.0 0.00 0.01 0.01 97 1012.0
20260510091532 50 143 0.0 0.0 0.00 0.01 0.01 97 1012.0
20260510091028 50 133 0.0 0.0 0.00 0.01 0.01 97 1012.1
20260510090525 50 134 0.0 0.0 0.00 0.01 0.01 97 1011.9
20260510090021 50 27 1.7 1.7 0.00 0.01 0.01 97 1012.3
20260510085521 50 153 0.9 0.9 0.00 0.01 0.01 97 1012.0
20260510085017 50 109 1.7 1.7 0.00 0.01 0.01 97 1012.0
20260510084514 50 128 0.0 0.9 0.00 0.01 0.01 97 1012.4
20260510084011 49 168 1.7 1.7 0.00 0.01 0.01 97 1011.7
20260510083507 49 357 2.6 2.6 0.00 0.01 0.01 97 1011.8
20260510083003 49 3 2.6 2.6 0.00 0.01 0.01 97 1012.1
20260510082501 49 135 0.0 0.0 0.00 0.01 0.01 97 1011.5
20260510082000 49 135 0.0 0.0 0.00 0.01 0.01 97 1011.4
20260510081456 49 130 0.0 0.0 0.00 0.01 0.01 97 1011.4
20260510080952 49 126 0.0 0.0 0.00 0.01 0.01 97 1011.6
20260510080451 49 117 0.0 0.0 0.00 0.01 0.01 97 1011.6
20260510075948 49 138 0.0 0.0 0.00 0.01 0.01 97 1011.4
20260510075446 49 127 0.0 0.0 0.00 0.01 0.01 97 1011.4
20260510074942 49 137 0.0 0.0 0.00 0.01 0.01 97 1011.3
20260510074440 49 136 0.0 0.0 0.00 0.01 0.01 97 1011.4
20260510073936 49 136 0.0 0.0 0.00 0.01 0.01 97 1011.4
20260510073431 49 144 0.0 0.0 0.00 0.01 0.01 97 1011.5
20260510072928 49 130 0.0 0.0 0.00 0.01 0.01 97 1011.2
20260510072425 49 132 0.0 0.0 0.00 0.01 0.01 96 1011.5
20260510071920 49 115 0.9 0.9 0.00 0.01 0.01 96 1011.5
20260510071417 49 137 0.0 0.9 0.00 0.01 0.01 96 1011.3
20260510070915 49 181 0.0 0.9 0.00 0.01 0.01 96 1011.4
20260510070412 49 138 0.0 0.0 0.00 0.01 0.01 96 1011.1
20260510065907 49 117 0.9 0.9 0.00 0.01 0.01 96 1011.2
20260510065404 49 134 0.0 0.0 0.00 0.01 0.01 96 1011.1
20260510064901 49 137 0.0 0.0 0.00 0.01 0.01 96 1011.1
20260510064359 49 138 0.0 0.0 0.00 0.01 0.01 96 1010.8
20260510063855 49 139 0.0 0.0 0.00 0.01 0.01 96 1010.9
20260510063351 49 135 0.0 0.0 0.00 0.01 0.01 96 1011.0
20260510062848 49 134 0.0 0.0 0.00 0.01 0.01 96 1010.7
20260510062343 49 131 0.0 0.0 0.00 0.01 0.01 96 1010.8
20260510061839 49 135 0.0 0.0 0.00 0.01 0.01 96 1010.8
20260510061336 49 135 0.0 0.0 0.07 0.01 0.01 96 1010.9
20260510060832 49 135 0.0 0.0 0.07 0.01 0.01 96 1011.2
20260510060330 49 127 0.0 0.0 0.00 0.00 0.00 96 1010.9
20260510055826 49 118 0.0 0.0 0.00 0.00 0.00 96 1011.0
20260510055325 49 117 0.0 0.0 0.00 0.00 0.00 96 1011.2
20260510054825 49 127 0.0 0.0 0.00 0.00 0.00 96 1011.1
20260510054320 49 135 0.0 0.0 0.00 0.00 0.00 96 1011.2
20260510053816 49 133 0.0 0.0 0.00 0.00 0.00 96 1011.0
20260510053311 49 132 0.0 0.0 0.00 0.00 0.00 96 1011.3
20260510052808 49 140 0.0 0.0 0.00 0.00 0.00 96 1011.4
20260510052306 49 140 0.0 0.0 0.00 0.00 0.00 96 1011.3
20260510051800 49 140 0.0 0.0 0.00 0.00 0.00 96 1011.3
20260510051257 49 131 0.0 0.0 0.00 0.00 0.00 96 1011.3
20260510050753 49 142 0.0 0.0 0.00 0.00 0.00 96 1011.5
20260510050250 49 145 0.0 0.0 0.00 0.00 0.00 96 1011.4
20260510045747 49 141 0.0 0.0 0.00 0.00 0.00 96 1011.4
20260510045244 49 135 0.0 0.0 0.00 0.00 0.00 96 1011.6
20260510044741 49 135 0.0 0.0 0.00 0.00 0.00 96 1011.6
20260510044239 49 135 0.0 0.0 0.00 0.00 0.00 96 1011.5
20260510043733 49 135 0.0 0.0 0.00 0.00 0.00 96 1011.7
20260510043231 49 135 0.0 0.0 0.00 0.00 0.00 96 1011.6
20260510042728 49 136 0.0 0.0 0.00 0.00 0.00 96 1011.7
20260510042223 48 136 0.0 0.0 0.00 0.00 0.00 96 1011.6
20260510041721 48 135 0.0 0.0 0.00 0.00 0.00 96 1011.7
20260510041218 48 137 0.0 0.0 0.00 0.00 0.00 96 1011.8
20260510040715 48 137 0.0 0.0 0.00 0.00 0.00 96 1011.8
20260510040212 48 137 0.0 0.0 0.00 0.00 0.00 96 1011.8
20260510035707 48 138 0.0 0.0 0.00 0.13 0.13 96 1011.8
20260510035203 48 137 0.0 0.0 0.00 0.13 0.13 96 1011.6
20260510034659 48 137 0.0 0.0 0.00 0.13 0.13 96 1011.6
20260510034157 48 135 0.0 0.0 0.00 0.13 0.13 95 1011.7
20260510033653 49 135 0.0 0.0 0.00 0.13 0.13 95 1011.5
20260510033151 49 137 0.0 0.0 0.00 0.13 0.13 95 1011.6
20260510032647 49 137 0.0 0.0 0.00 0.13 0.13 95 1011.4
20260510032142 49 137 0.0 0.0 0.00 0.13 0.13 95 1011.3
20260510031638 49 136 0.0 0.0 0.00 0.13 0.13 95 1011.3
20260510031135 49 137 0.0 0.0 0.00 0.13 0.13 95 1011.4
20260510030634 49 137 0.0 0.0 0.00 0.13 0.13 95 1011.2
20260510030132 49 137 0.0 0.0 0.00 0.13 0.13 95 1011.1
20260510025629 49 135 0.0 0.0 0.00 0.13 0.13 95 1011.2
20260510025126 50 133 0.0 0.0 0.00 0.13 0.13 95 1011.2
20260510024623 50 133 0.0 0.0 0.00 0.13 0.13 95 1011.3
20260510024120 50 133 0.0 0.0 0.00 0.13 0.13 95 1011.5
20260510023616 50 133 0.0 0.0 0.00 0.13 0.13 95 1011.2
20260510023114 50 135 0.0 0.0 0.00 0.13 0.13 95 1011.1
20260510022613 50 132 0.0 0.0 0.00 0.13 0.13 95 1011.1
20260510022108 50 132 0.0 0.0 0.00 0.13 0.13 95 1011.3
20260510021604 50 135 0.0 0.0 0.00 0.13 0.13 95 1011.2
20260510021103 50 135 0.0 0.0 0.00 0.13 0.13 95 1011.3
20260510020601 51 131 0.0 0.0 0.00 0.13 0.13 95 1011.1
20260510020057 50 130 0.0 0.0 0.00 0.13 0.13 95 1011.1
20260510015554 51 143 0.0 0.0 0.00 0.13 0.13 95 1011.1
20260510015050 51 142 0.0 0.0 0.00 0.13 0.13 94 1011.1
20260510014546 51 133 0.0 0.0 0.00 0.13 0.13 94 1011.1
20260510014043 51 136 0.0 0.0 0.00 0.13 0.13 94 1011.2
20260510013538 51 134 0.0 0.0 0.00 0.13 0.13 94 1011.1
20260510013034 51 129 0.0 0.0 0.00 0.13 0.13 94 1011.1
20260510012533 51 134 0.0 0.0 0.00 0.13 0.13 94 1011.0
20260510012031 52 133 0.0 0.0 0.00 0.13 0.13 94 1011.1
20260510011530 51 135 0.0 0.0 0.00 0.13 0.13 94 1011.2
20260510011026 52 135 0.0 0.0 0.00 0.13 0.13 94 1010.9
20260510010523 52 130 0.0 0.0 0.00 0.13 0.13 94 1010.9
20260510010020 52 139 0.0 0.0 0.00 0.13 0.13 94 1010.9
20260510005515 53 136 0.0 0.0 0.00 0.13 0.13 93 1010.8
20260510005014 53 134 0.0 0.0 0.00 0.13 0.13 93 1010.7
20260510004511 53 133 0.0 0.0 0.00 0.13 0.13 93 1010.7
20260510004009 53 122 0.0 0.0 0.00 0.13 0.13 93 1010.7
20260510003505 53 129 0.0 0.0 0.00 0.13 0.13 93 1010.7
20260510003000 53 135 0.0 0.0 0.00 0.13 0.13 93 1010.8
20260510002456 53 133 0.0 0.0 0.00 0.13 0.13 93 1010.7
20260510001953 54 129 0.0 0.0 0.00 0.13 0.13 93 1010.6
20260510001450 54 141 0.0 0.0 0.00 0.13 0.13 92 1010.7
20260510000948 54 142 0.0 0.0 0.00 0.13 0.13 92 1010.6
20260510000444 54 140 0.0 0.0 0.00 0.13 0.13 92 1010.8
20260509235940 54 135 0.0 0.0 0.00 0.13 0.13 91 1010.6
20260509235437 55 129 0.0 0.0 0.00 0.13 0.13 91 1010.6
20260509234933 55 127 0.0 0.0 0.00 0.13 0.13 90 1010.8
20260509234430 55 132 0.0 0.0 0.00 0.13 0.13 90 1010.6
20260509233929 55 128 0.0 0.0 0.00 0.13 0.13 90 1010.6
20260509233426 56 128 0.0 0.0 0.00 0.13 0.13 90 1010.7
20260509232922 56 128 0.0 0.0 0.00 0.13 0.13 89 1010.5
20260509232420 56 127 0.0 0.0 0.00 0.13 0.13 89 1010.5
20260509231915 56 116 0.0 0.0 0.00 0.13 0.13 88 1010.4
20260509231412 57 134 0.0 0.0 0.00 0.13 0.13 87 1010.5
20260509230910 57 131 0.0 0.0 0.00 0.13 0.13 86 1010.4
20260509230407 58 126 0.0 0.0 0.00 0.13 0.13 86 1010.5
20260509225902 57 120 0.0 0.9 0.00 0.13 0.13 87 1010.4
20260509225359 57 122 0.0 0.0 0.00 0.13 0.13 88 1010.5
20260509224855 57 133 0.0 0.0 0.00 0.13 0.13 89 1010.6
20260509224351 57 106 0.0 0.9 0.00 0.13 0.13 88 1010.4
20260509223849 57 90 0.0 0.0 0.00 0.13 0.13 89 1010.4
20260509223345 57 145 0.0 0.0 0.00 0.13 0.13 89 1010.5
20260509222842 56 115 0.0 0.0 0.00 0.13 0.13 89 1010.3
20260509222337 57 160 0.0 0.9 0.00 0.13 0.13 89 1010.5
20260509221833 57 139 0.0 0.9 0.00 0.13 0.13 88 1010.3
20260509221331 57 148 0.0 0.0 0.00 0.13 0.13 88 1010.5
20260509220831 57 158 0.9 0.9 0.00 0.13 0.13 88 1010.6
20260509220327 57 140 0.0 0.0 0.00 0.13 0.13 88 1010.6
20260509215823 56 124 1.7 1.7 0.00 0.13 0.13 89 1010.6
20260509215320 56 120 0.0 0.0 0.00 0.13 0.13 89 1010.7
20260509214816 56 112 0.0 0.0 0.00 0.13 0.13 89 1010.7
20260509214314 56 121 0.9 0.9 0.00 0.13 0.13 88 1010.8
20260509213811 57 91 0.0 0.9 0.00 0.13 0.13 88 1010.9
20260509213306 57 137 0.0 0.0 0.00 0.13 0.13 88 1010.9
20260509212804 57 143 0.0 0.0 0.00 0.13 0.13 89 1011.0
20260509212305 56 132 0.0 0.0 0.00 0.13 0.13 89 1010.9
20260509211756 56 134 0.0 0.0 0.00 0.13 0.13 89 1011.0
20260509211253 56 99 0.0 0.0 0.05 0.13 0.13 89 1010.8
20260509210750 56 141 0.0 0.0 0.52 0.13 0.13 89 1010.8
20260509210248 56 163 0.0 0.9 0.71 0.13 0.13 87 1010.9
20260509205747 57 164 0.0 0.9 0.38 0.06 0.06 86 1010.9
20260509205242 57 64 0.9 0.9 0.07 0.01 0.01 84 1011.2
20260509204738 57 125 0.0 0.0 0.00 0.00 0.00 82 1010.4
20260509204235 58 108 0.0 0.0 0.00 0.00 0.00 81 1010.5
20260509203730 58 134 0.0 0.0 0.00 0.00 0.00 79 1010.7
20260509203229 58 1 1.7 1.7 0.00 0.00 0.00 78 1010.7
20260509202724 58 113 0.9 0.9 0.00 0.00 0.00 78 1010.8
20260509202220 59 103 0.9 1.7 0.00 0.00 0.00 78 1010.4
20260509201715 59 126 0.9 1.7 0.00 0.00 0.00 78 1010.5
20260509201212 59 150 0.9 1.7 0.00 0.00 0.00 79 1010.5
20260509200708 59 125 0.9 0.9 0.00 0.00 0.00 78 1010.4
20260509200203 59 22 1.7 2.6 0.00 0.00 0.00 77 1010.7
20260509195659 59 46 0.9 1.7 0.00 0.00 0.00 78 1010.8
20260509195155 59 349 3.5 3.5 0.00 0.00 0.00 77 1010.6
20260509194654 59 120 1.7 2.6 0.00 0.00 0.00 79 1010.6
20260509194152 58 107 0.9 0.9 0.00 0.00 0.00 78 1010.8
20260509193648 58 185 0.0 0.9 0.00 0.00 0.00 79 1011.0
20260509193143 58 140 1.7 1.7 0.00 0.00 0.00 80 1011.2
20260509192640 58 309 3.5 3.5 0.00 0.00 0.00 79 1011.4
20260509192136 58 30 1.7 2.6 0.00 0.00 0.00 80 1011.3
20260509191635 57 289 2.6 2.6 0.00 0.00 0.00 80 1011.7
20260509191132 58 182 1.7 2.6 0.00 0.00 0.00 80 1011.5
20260509190629 58 343 2.6 2.6 0.00 0.00 0.00 78 1011.4
20260509190126 58 323 1.7 1.7 0.00 0.00 0.00 77 1011.4
20260509185624 58 116 0.9 1.7 0.00 0.00 0.00 76 1011.4
20260509185119 58 10 3.5 3.5 0.00 0.00 0.00 76 1011.5
20260509184618 58 286 1.7 1.7 0.00 0.00 0.00 75 1011.5
20260509184114 59 302 2.6 3.5 0.00 0.00 0.00 76 1011.6
20260509183610 59 104 1.7 2.6 0.00 0.00 0.00 75 1011.7
20260509183106 59 112 1.7 2.6 0.00 0.00 0.00 76 1011.6
20260509182602 59 24 2.6 5.2 0.00 0.00 0.00 76 1011.6
20260509182059 59 135 2.6 2.6 0.00 0.00 0.00 76 1011.6
20260509181557 60 243 2.6 2.6 0.00 0.00 0.00 75 1011.7
20260509181054 60 352 1.7 2.6 0.00 0.00 0.00 75 1011.5
20260509180550 60 151 3.5 3.5 0.00 0.00 0.00 74 1011.5